Jonesboro, AR

11:18 PM CDT on March 24, 2017 (GMT -0500)
Jonesboro Municipal

Weather History for KJBR - February, 2014

Change the Weather History Date:

Monday, February 3, 2014

  Actual Average Record
Temperature  
Mean Temperature 23 °F 39 °F  
Max Temperature 27 °F 48 °F 75 °F (1943)
Min Temperature 19 °F 30 °F 1 °F (1996)
Degree Days  
Heating Degree Days 42 26  
Month to date heating degree days 86 78  
Since 1 July heating degree days 2629 2374  
Cooling Degree Days 0 0  
Month to date cooling degree days 0 0  
Year to date cooling degree days 0 0  
Moisture  
Dew Point 16 °F    
Average Humidity 72    
Maximum Humidity 81    
Minimum Humidity 63    
Precipitation  
Precipitation T in 0.13 in 2.55 in (1939)
Month to date precipitation 1.29 0.38  
Year to date precipitation 3.41 3.81  
Snow  
Snow T in - - ()
Month to date snowfall T  
Snow Depth 0.00 in    
Sea Level Pressure  
Sea Level Pressure 30.30 in    
Wind  
Wind Speed 9 mph (NE)    
Max Wind Speed 16 mph    
Max Gust Speed 21 mph    
Visibility 10 miles    
Events Snow    
T = Trace of Precipitation, MM = Missing Value Source: NWS Daily Summary

Daily Weather History Graph

Daily Weather History Graph

Search for Another Location

Airport or City:

Trip Planner

Search our weather history database for the weather conditions in past years. The results will help you decide how hot, cold, wet, or windy it might be!

Date:

Astronomy

Feb. 03, 2014 Rise Set
Actual Time 7:01 AM CST 5:32 PM CST
Civil Twilight 6:34 AM CST 5:58 PM CST
Nautical Twilight 6:04 AM CST 6:29 PM CST
Astronomical Twilight 5:33 AM CST 6:59 PM CST
Moon 9:13 AM CST (2/3) 10:11 PM CST (2/3)
Length of Visible Light 11h 24m
Length of Day
10h 30m
Waxing Crescent, 20% of the Moon is Illuminated
Feb 3
Waxing Crescent
Feb 6
First Quarter
Feb 14
Full
Feb 22
Last Quarter
Mar 1
New

Hourly Weather History & Observations

Time (CST) Temp. Windchill Dew Point Humidity Pressure Visibility Wind Dir Wind Speed Gust Speed Precip Events Conditions
12:26 AM 24.8 °F 15.3 °F 19.4 °F 80% 30.24 in 7.0 mi North 9.2 mph - 0.00 in   Overcast
12:53 AM 25.0 °F 17.1 °F 19.9 °F 81% 30.24 in 5.0 mi North 6.9 mph - 0.00 in Snow Light Snow
1:53 AM 25.0 °F 17.1 °F 18.0 °F 75% 30.27 in 10.0 mi NNW 6.9 mph - 0.00 in   Partly Cloudy
2:53 AM 24.1 °F 17.0 °F 17.1 °F 75% 30.27 in 10.0 mi North 5.8 mph - N/A   Clear
3:53 AM 23.0 °F 14.7 °F 16.0 °F 74% 30.28 in 10.0 mi North 6.9 mph - N/A   Clear
4:53 AM 21.0 °F 12.4 °F 15.1 °F 78% 30.27 in 10.0 mi North 6.9 mph - N/A   Clear
5:53 AM 19.9 °F 12.1 °F 14.0 °F 78% 30.30 in 10.0 mi North 5.8 mph - N/A   Clear
6:53 AM 19.0 °F 12.3 °F 12.9 °F 77% 30.34 in 10.0 mi NNE 4.6 mph - N/A   Clear
7:53 AM 19.9 °F 11.1 °F 12.9 °F 74% 30.37 in 10.0 mi NNE 6.9 mph - N/A   Clear
8:53 AM 21.0 °F 10.6 °F 14.0 °F 74% 30.37 in 10.0 mi NNE 9.2 mph - N/A   Clear
9:53 AM 23.0 °F 13.1 °F 14.0 °F 68% 30.38 in 10.0 mi ENE 9.2 mph - N/A   Clear
10:53 AM 23.0 °F 10.1 °F 15.1 °F 72% 30.35 in 10.0 mi ENE 15.0 mph - N/A   Clear
11:53 AM 24.1 °F 12.5 °F 16.0 °F 71% 30.35 in 10.0 mi ENE 12.7 mph - N/A   Clear
12:53 PM 26.1 °F 16.2 °F 16.0 °F 66% 30.32 in 10.0 mi NE 10.4 mph - N/A   Clear
1:53 PM 27.0 °F 15.6 °F 15.1 °F 61% 30.30 in 10.0 mi NE 13.8 mph - N/A   Clear
2:53 PM 27.0 °F 16.1 °F 16.0 °F 63% 30.30 in 10.0 mi ENE 12.7 mph - N/A   Clear
3:53 PM 27.0 °F 16.1 °F 18.0 °F 69% 30.31 in 10.0 mi ENE 12.7 mph - N/A   Clear
4:53 PM 26.1 °F 15.6 °F 17.1 °F 69% 30.32 in 10.0 mi ENE 11.5 mph - N/A   Clear
5:53 PM 24.1 °F 14.4 °F 17.1 °F 75% 30.30 in 10.0 mi ENE 9.2 mph - N/A   Clear
6:53 PM 24.1 °F 14.4 °F 17.1 °F 75% 30.31 in 10.0 mi NE 9.2 mph - N/A   Clear
7:53 PM 24.1 °F 16.0 °F 17.1 °F 75% 30.31 in 10.0 mi ENE 6.9 mph - N/A   Clear
8:53 PM 24.1 °F 13.7 °F 18.0 °F 77% 30.29 in 10.0 mi ENE 10.4 mph - N/A   Clear
9:53 PM 24.1 °F 15.2 °F 18.0 °F 77% 30.29 in 10.0 mi NE 8.1 mph - N/A   Clear
10:53 PM 25.0 °F 15.5 °F 18.0 °F 75% 30.27 in 10.0 mi NE 9.2 mph - N/A   Clear
11:53 PM 25.0 °F 16.3 °F 19.0 °F 78% 30.25 in 10.0 mi NE 8.1 mph - N/A   Clear